TimeCST,TemperatureF,Dew PointF,Humidity,Sea Level PressureIn,VisibilityMPH,Wind Direction,Wind SpeedMPH,Gust SpeedMPH,PrecipitationIn,Events,Conditions,WindDirDegrees,DateUTC
12:28 AM,33.8,32.0,93,30.09,9.0,Calm,Calm,-,N/A,,Clear,360,2013-02-14 06:28:00
12:43 AM,33.8,32.0,93,30.09,10.0,South,2.3,-,N/A,,Clear,170,2013-02-14 06:43:00
12:58 AM,34.2,33.4,97,30.10,10.0,SSE,2.3,-,N/A,,Clear,150,2013-02-14 06:58:00
1:58 AM,32.9,32.5,99,30.10,10.0,ESE,1.2,-,N/A,,Clear,110,2013-02-14 07:58:00
2:46 AM,32.0,32.0,100,30.08,9.0,Calm,Calm,-,N/A,,Clear,360,2013-02-14 08:46:00
2:58 AM,32.2,32.0,99,30.09,10.0,SE,2.3,-,N/A,,Clear,140,2013-02-14 08:58:00
3:58 AM,30.9,30.7,99,30.09,10.0,SE,2.3,-,N/A,,Clear,130,2013-02-14 09:58:00
4:58 AM,29.3,28.9,99,30.10,10.0,SSE,6.9,-,N/A,,Clear,160,2013-02-14 10:58:00
5:13 AM,30.2,30.2,100,30.09,9.0,SSE,5.8,-,N/A,,Clear,160,2013-02-14 11:13:00
5:28 AM,30.2,28.4,93,30.10,10.0,SSE,4.6,-,N/A,,Clear,160,2013-02-14 11:28:00
5:58 AM,31.5,31.1,99,30.12,10.0,SSE,5.8,-,N/A,,Clear,160,2013-02-14 11:58:00
6:28 AM,32.0,30.2,93,30.11,9.0,SSE,4.6,-,N/A,,Clear,160,2013-02-14 12:28:00
6:58 AM,31.1,30.9,99,30.14,6.0,South,4.6,-,N/A,,Clear,170,2013-02-14 12:58:00
7:58 AM,33.8,33.4,99,30.15,6.0,SSE,2.3,-,N/A,,Clear,160,2013-02-14 13:58:00
8:58 AM,43.0,37.4,81,30.17,10.0,Calm,Calm,-,N/A,,Clear,310,2013-02-14 14:58:00
9:58 AM,49.3,37.4,64,30.16,10.0,South,5.8,-,N/A,,Clear,190,2013-02-14 15:58:00
10:58 AM,54.0,36.0,51,30.15,10.0,SW,4.6,-,N/A,,Clear,220,2013-02-14 16:58:00
11:58 AM,57.6,33.4,40,30.13,10.0,Variable,3.5,-,N/A,,Clear,0,2013-02-14 17:58:00
12:58 PM,60.6,33.6,36,30.11,10.0,WNW,8.1,-,N/A,,Clear,300,2013-02-14 18:58:00
1:58 PM,62.1,30.2,30,30.08,10.0,Variable,3.5,-,N/A,,Clear,0,2013-02-14 19:58:00
2:58 PM,62.8,28.9,28,30.06,10.0,South,5.8,-,N/A,,Clear,190,2013-02-14 20:58:00
3:53 PM,62.6,30.2,30,30.05,10.0,Variable,1.2,-,N/A,,Light Drizzle,0,2013-02-14 21:53:00
3:58 PM,63.5,29.5,28,30.06,10.0,Variable,1.2,-,0.00,,Light Drizzle,0,2013-02-14 21:58:00
4:00 PM,64.4,28.4,26,30.06,10.0,SSW,2.3,-,N/A,,Clear,200,2013-02-14 22:00:00
4:01 PM,64.4,28.4,26,30.05,10.0,SSW,3.5,-,N/A,,Light Drizzle,210,2013-02-14 22:01:00
4:04 PM,64.4,28.4,26,30.05,10.0,Variable,2.3,-,N/A,,Clear,0,2013-02-14 22:04:00
4:58 PM,63.1,28.8,27,30.06,10.0,South,1.2,-,N/A,,Clear,180,2013-02-14 22:58:00
5:58 PM,59.0,32.0,36,30.06,10.0,East,2.3,-,N/A,,Clear,100,2013-02-14 23:58:00
6:58 PM,53.4,31.6,44,30.08,10.0,SE,3.5,-,N/A,,Clear,130,2013-02-15 00:58:00
7:58 PM,48.4,34.9,60,30.09,10.0,South,3.5,-,N/A,,Clear,170,2013-02-15 01:58:00
8:58 PM,46.6,34.0,62,30.09,10.0,South,2.3,-,N/A,,Clear,170,2013-02-15 02:58:00
9:58 PM,44.8,34.9,68,30.11,10.0,SE,3.5,-,N/A,,Clear,140,2013-02-15 03:58:00
10:58 PM,41.0,35.2,80,30.10,10.0,SSE,2.3,-,N/A,,Clear,160,2013-02-15 04:58:00
11:58 PM,40.8,35.2,80,30.10,10.0,South,3.5,-,N/A,,Clear,180,2013-02-15 05:58:00